Location: Stara Lesna
(49.1528°N, 20.2911°E)
Time: 09:02:04
(UTC+02:00)

PSLV R/B - Pass Details

Date: 21 September 2019
Orbit: 567 x 599 km, 98.1° (Epoch: 18 October)

Event Time Altitude Azimuth Distance (km) Brightness Sun altitude
Rises 04:22:20 0° 165° (SSE) 2,807 7.3 -19.9°
Reaches altitude 10° 04:24:29 10° 165° (SSE) 1,906 6.4 -19.5°
Maximum altitude 04:28:37 88° 249° (WSW) 590 3.8 -18.9°
Drops below altitude 10° 04:32:45 10° 346° (NNW) 1,902 6.7 -18.3°
Sets 04:34:54 0° 346° (NNW) 2,801 7.6 -18.0°
